User: anonymous   Login
Location: Aalen
(48.8330°N, 10.1000°E)
Time: 21:09:04
(UTC+02:00)
Language:

Envisat - Orbit

View from above orbital plane
View from above orbital plane
View from above satellite
View from above satellite

Ground track
Ground track

The orbit data is extracted from the following two-line orbital elements,

1 27386U 02009A   20220.57592801 +.00000001 +00000-0 +13900-4 0  9998
2 27386 098.1365 224.9371 0001420 088.8419 020.0722 14.37988163965893
Epoch (UTC): 07 August 2020 13:49:20
Eccentricity: 0.0001420
inclination: 98.1365°
perigee height: 764 km
apogee height: 766 km
right ascension of ascending node: 224.9371°
argument of perigee: 88.8419°
revolutions per day: 14.37988163
mean anomaly at epoch: 20.0722°
orbit number at epoch: 96589

The dashed part of the orbit path shows where the satellite is in the earth's shadow,  

DLR